Date,TemperatureHighF,TemperatureAvgF,TemperatureLowF,DewpointHighF,DewpointAvgF,DewpointLowF,HumidityHigh,HumidityAvg,HumidityLow,PressureMaxIn,PressureMinIn,WindSpeedMaxMPH,WindSpeedAvgMPH,GustSpeedMaxMPH,PrecipitationSumIn
2013-8-1,85.2,74.4,68.7,75.7,70.8,67.7,99,89,67,29.97,29.84,8,0,9,0.22
2013-8-2,87.3,74.3,64.9,74.0,68.7,64.7,100,84,52,30.02,29.90,4,0,4,0.00
2013-8-3,86.8,76.7,67.8,77.2,71.3,67.2,99,85,55,30.00,29.90,9,1,11,0.00
2013-8-4,85.2,74.6,67.7,72.6,68.6,65.5,98,83,55,30.02,29.89,7,0,7,0.04
2013-8-5,82.5,71.9,64.0,73.0,67.3,62.2,97,86,67,30.06,29.95,4,0,5,0.00
2013-8-6,76.4,70.9,65.5,72.9,68.9,64.1,99,93,85,30.04,29.95,6,0,6,0.51
2013-8-7,82.4,73.8,69.3,75.3,71.1,68.1,99,92,73,30.07,29.99,6,0,6,0.11
2013-8-8,86.0,75.8,70.3,78.2,73.0,69.6,99,91,73,30.04,29.96,7,0,8,0.02
2013-8-9,88.3,76.0,71.0,80.2,73.3,70.0,99,92,68,30.03,29.95,16,1,19,1.00
2013-8-10,90.6,75.2,70.2,81.2,73.0,69.3,100,93,61,30.08,30.01,12,0,13,1.67
2013-8-11,89.9,77.7,68.0,79.7,73.6,68.0,100,88,62,30.10,30.00,6,0,7,0.00
2013-8-12,92.3,76.9,69.9,79.8,72.4,69.6,99,87,56,30.04,29.92,5,0,6,0.03
2013-8-13,85.6,73.9,67.9,77.6,71.5,67.6,100,93,69,29.93,29.78,10,0,12,0.12
2013-8-14,77.6,69.4,61.8,71.0,65.0,60.9,99,87,60,30.07,29.84,6,0,7,0.00
2013-8-15,73.3,64.3,56.4,63.4,59.7,55.6,98,86,63,30.16,30.06,6,0,8,0.00
2013-8-16,72.2,62.8,56.2,64.2,59.9,55.6,99,91,71,30.17,30.08,5,0,6,0.00
2013-8-17,65.0,62.0,58.0,63.7,61.1,57.4,99,97,91,30.20,30.13,0,0,0,0.66
2013-8-18,77.6,69.5,62.8,72.4,67.4,62.5,100,93,77,30.23,30.12,5,0,6,0.14
2013-8-19,76.4,69.2,65.9,71.6,67.9,65.6,99,96,81,30.17,30.07,2,0,3,0.45
2013-8-20,79.7,71.5,63.8,74.0,69.0,63.5,100,92,78,30.18,30.09,1,0,2,0.00
2013-8-21,83.0,73.3,67.8,76.9,71.4,67.5,100,94,73,30.21,30.08,4,0,5,0.34
2013-8-22,88.5,77.2,68.1,76.1,72.0,67.3,100,85,60,30.13,29.97,5,0,5,0.26
2013-8-23,87.1,72.8,65.5,75.4,69.6,65.2,100,90,59,30.07,29.94,5,0,8,0.28
2013-8-24,81.0,68.6,60.8,66.6,62.5,60.0,98,83,52,30.29,30.07,6,0,6,0.00
2013-8-25,80.2,66.7,56.7,67.8,61.6,56.4,100,86,53,30.39,30.27,4,0,6,0.00
2013-8-26,83.7,67.9,55.1,69.3,62.6,54.8,100,85,54,30.32,30.10,5,0,5,0.00
2013-8-27,88.5,74.9,63.4,76.4,69.1,62.5,99,84,60,30.12,29.96,5,0,5,0.00
2013-8-28,88.2,77.0,67.3,77.4,71.9,66.7,99,85,65,29.99,29.88,3,0,0,0.00
2013-8-29,90.3,78.0,70.2,77.5,73.0,68.9,97,85,62,29.97,29.85,2,0,1,0.00
2013-8-30,86.8,74.7,68.5,72.8,69.8,67.0,99,86,56,30.03,29.91,4,0,4,0.00
2013-8-31,87.8,74.4,66.6,77.5,71.0,65.9,99,90,65,29.94,29.83,3,0,0,0.03